contact:dominique.lefevre@mio.osupytheas.fr, maurice.libes@osupytheas.fr, didier.mallarino@osupytheas.fr
Project:EMSO http://www.emso-fr.org/EMSO-France
Depth: 2436.0 m
Title:EMSO Ligure Ouest : Data MII capteur AQUADOPP
Date,Latitude,Longitude,X_East,Y_North,Z_Up,Amplitude_X,Amplitude_Y,Amplitude_Z,Batterie,SoundSpeed,Heading,Pitch,Roll,Pressure,TIS,Speed,Direction
, degrees North, degrees East, m.s-1, m.s-1,m.s-1, 1, 1, 1, Volt, m.s-1, degree, degree, degree, dbar, degree_C, m.s-1, degree
2022-10-26T00:04:03,42.805,6.029,-0.036,-0.026,-0.043,101.0,100.0,100.0,13.4,1505.2,319.6,-0.7,1.8,2471.093,13.28,0.044,234.2
2022-10-26T00:07:03,42.805,6.029,-0.035,-0.039,-0.001,102.0,101.0,100.0,13.4,1505.2,322.7,-0.8,1.8,2471.057,13.28,0.052,221.9
2022-10-26T00:10:03,42.805,6.029,-0.021,-0.042,-0.033,101.0,101.0,101.0,13.4,1505.2,321.2,-0.8,1.8,2471.065,13.28,0.046,206.6
2022-10-26T00:13:03,42.805,6.029,-0.039,-0.009,-0.021,100.0,101.0,101.0,13.4,1505.2,330.4,-0.8,1.8,2471.03,13.28,0.04,257.0
2022-10-26T00:16:03,42.805,6.029,0.019,-0.045,-0.021,101.0,101.0,100.0,13.4,1505.2,318.5,-0.8,1.8,2471.056,13.29,0.048,157.1
2022-10-26T00:19:03,42.805,6.029,-0.036,-0.05,-0.048,100.0,100.0,101.0,13.4,1505.2,328.8,-0.7,1.8,2470.982,13.29,0.061,215.8
2022-10-26T00:22:03,42.805,6.029,-0.04,-0.023,-0.019,100.0,101.0,101.0,13.4,1505.2,329.6,-0.8,1.8,2471.003,13.29,0.046,240.1
2022-10-26T00:25:03,42.805,6.029,-0.027,-0.03,-0.026,102.0,101.0,100.0,13.4,1505.2,322.7,-0.7,1.8,2470.966,13.29,0.04,222.0
2022-10-26T00:28:03,42.805,6.029,-0.04,-0.037,-0.032,102.0,101.0,100.0,13.4,1505.2,334.3,-0.8,1.8,2471.023,13.29,0.054,227.2
2022-10-26T00:31:03,42.805,6.029,-0.026,-0.045,-0.03,101.0,100.0,101.0,13.4,1505.2,320.5,-0.8,1.8,2470.992,13.29,0.051,210.0
2022-10-26T00:34:03,42.805,6.029,-0.064,-0.026,-0.024,101.0,103.0,101.0,13.3,1505.2,330.4,-0.8,1.8,2470.985,13.29,0.069,247.9
2022-10-26T00:37:03,42.805,6.029,-0.039,-0.01,-0.011,102.0,101.0,101.0,13.4,1505.2,329.9,-0.7,1.8,2470.988,13.29,0.04,255.6
2022-10-26T00:40:03,42.805,6.029,-0.029,-0.026,-0.015,102.0,101.0,100.0,13.4,1505.2,326.4,-0.7,1.8,2471.006,13.29,0.038,228.1
2022-10-26T00:43:03,42.805,6.029,-0.024,-0.019,-0.013,102.0,101.0,100.0,13.3,1505.2,329.0,-0.7,1.8,2470.962,13.29,0.03,231.6
2022-10-26T00:46:03,42.805,6.029,-0.037,-0.029,-0.004,101.0,103.0,100.0,13.4,1505.2,325.7,-0.7,1.8,2470.991,13.29,0.047,231.9
2022-10-26T00:49:03,42.805,6.029,-0.018,-0.037,-0.047,102.0,101.0,100.0,13.4,1505.2,316.7,-0.7,1.8,2470.967,13.29,0.041,205.9
2022-10-26T00:52:03,42.805,6.029,-0.053,-0.016,-0.031,101.0,102.0,100.0,13.4,1505.2,332.8,-0.8,1.8,2471.018,13.29,0.055,253.2
2022-10-26T00:55:03,42.805,6.029,-0.031,-0.03,-0.023,102.0,101.0,100.0,13.3,1505.2,327.0,-0.8,1.8,2470.987,13.29,0.043,225.9
2022-10-26T00:58:03,42.805,6.029,-0.042,-0.021,-0.047,102.0,101.0,100.0,13.4,1505.2,333.4,-0.8,1.8,2470.985,13.29,0.046,243.4
2022-10-26T01:04:03,42.805,6.029,-0.03,-0.037,-0.057,104.0,103.0,103.0,13.4,1505.2,320.5,-0.8,1.8,2471.049,13.28,0.047,219.0
2022-10-26T01:07:03,42.805,6.029,-0.04,-0.008,-0.023,102.0,102.0,102.0,13.4,1505.2,330.7,-0.8,1.8,2470.998,13.28,0.04,258.7
2022-10-26T01:10:03,42.805,6.029,-0.025,-0.033,-0.04,101.0,101.0,100.0,13.4,1505.2,323.1,-0.8,1.8,2470.981,13.28,0.041,217.2
2022-10-26T01:13:03,42.805,6.029,-0.036,-0.004,-0.046,102.0,102.0,100.0,13.4,1505.2,327.3,-0.8,1.8,2471.026,13.28,0.036,263.7
2022-10-26T01:16:03,42.805,6.029,-0.02,-0.019,-0.014,102.0,101.0,100.0,13.4,1505.2,330.0,-0.8,1.8,2471.006,13.29,0.027,226.5
2022-10-26T01:19:03,42.805,6.029,-0.011,-0.032,-0.012,102.0,102.0,101.0,13.4,1505.2,327.5,-0.7,1.8,2470.957,13.29,0.033,199.0
2022-10-26T01:22:03,42.805,6.029,0.003,-0.038,-0.019,102.0,101.0,100.0,13.3,1505.2,326.9,-0.8,1.8,2470.995,13.29,0.038,175.5
2022-10-26T01:25:03,42.805,6.029,-0.02,-0.048,-0.042,102.0,102.0,101.0,13.4,1505.2,319.2,-0.8,1.8,2470.977,13.29,0.052,202.6
2022-10-26T01:28:03,42.805,6.029,-0.028,-0.029,-0.015,102.0,101.0,100.0,13.3,1505.2,328.5,-0.8,1.8,2470.975,13.29,0.04,224.0
2022-10-26T01:31:03,42.805,6.029,-0.023,-0.022,-0.048,102.0,102.0,101.0,13.4,1505.2,322.8,-0.8,1.8,2470.972,13.29,0.031,226.3
2022-10-26T01:34:03,42.805,6.029,-0.016,-0.038,-0.03,101.0,102.0,100.0,13.4,1505.2,327.5,-0.8,1.8,2470.935,13.29,0.041,202.8
2022-10-26T01:37:03,42.805,6.029,-0.015,-0.037,-0.026,103.0,102.0,100.0,13.3,1505.2,324.9,-0.7,1.8,2471.008,13.29,0.039,202.1
2022-10-26T01:40:03,42.805,6.029,-0.026,-0.026,-0.003,101.0,101.0,101.0,13.4,1505.2,317.1,-0.7,1.8,2471.005,13.29,0.036,225.0
2022-10-26T01:43:03,42.805,6.029,-0.002,-0.037,-0.017,101.0,102.0,102.0,13.4,1505.2,333.7,-0.8,1.8,2470.936,13.29,0.037,183.1
2022-10-26T01:46:03,42.805,6.029,-0.016,-0.036,-0.023,103.0,102.0,99.0,13.4,1505.2,327.7,-0.8,1.8,2470.957,13.29,0.039,204.0
2022-10-26T01:49:03,42.805,6.029,-0.023,-0.031,-0.048,101.0,102.0,100.0,13.3,1505.2,322.0,-0.8,1.8,2470.969,13.29,0.038,216.6
2022-10-26T01:52:03,42.805,6.029,-0.024,-0.033,-0.023,102.0,100.0,101.0,13.3,1505.2,333.1,-0.7,1.8,2470.927,13.29,0.04,216.0
2022-10-26T01:55:03,42.805,6.029,-0.02,-0.033,-0.044,102.0,101.0,101.0,13.4,1505.2,318.4,-0.8,1.8,2471.005,13.29,0.038,211.2
2022-10-26T01:58:03,42.805,6.029,-0.038,-0.027,-0.017,102.0,101.0,100.0,13.3,1505.2,320.1,-0.8,1.8,2471.011,13.29,0.046,234.6
2022-10-26T02:04:03,42.805,6.029,-0.026,-0.05,-0.045,101.0,101.0,101.0,13.4,1505.2,325.1,-0.7,1.9,2471.007,13.28,0.056,207.5
2022-10-26T02:07:03,42.805,6.029,-0.027,-0.009,-0.015,101.0,101.0,100.0,13.4,1505.2,322.9,-0.8,1.8,2471.011,13.28,0.028,251.6
2022-10-26T02:10:03,42.805,6.029,-0.013,-0.064,-0.027,102.0,102.0,101.0,13.4,1505.2,325.5,-0.7,1.8,2470.993,13.28,0.065,191.5
2022-10-26T02:13:03,42.805,6.029,-0.025,-0.038,-0.006,101.0,101.0,101.0,13.4,1505.2,322.6,-0.8,1.8,2471.007,13.28,0.045,213.3
2022-10-26T02:16:03,42.805,6.029,-0.027,-0.023,0.002,101.0,102.0,101.0,13.3,1505.2,333.4,-0.8,1.8,2470.969,13.29,0.035,229.6
2022-10-26T02:19:03,42.805,6.029,-0.017,-0.032,-0.041,102.0,102.0,101.0,13.4,1505.2,323.2,-0.7,1.8,2470.95,13.29,0.036,208.0
2022-10-26T02:22:03,42.805,6.029,-0.014,-0.032,-0.03,102.0,101.0,101.0,13.4,1505.2,326.3,-0.8,1.8,2470.987,13.29,0.034,203.6
2022-10-26T02:25:03,42.805,6.029,-0.023,-0.044,-0.053,102.0,101.0,100.0,13.4,1505.2,322.0,-0.8,1.8,2471.01,13.29,0.049,207.6
2022-10-26T02:28:03,42.805,6.029,-0.013,-0.043,-0.046,102.0,101.0,101.0,13.4,1505.2,328.2,-0.7,1.8,2470.944,13.29,0.044,196.8
2022-10-26T02:31:03,42.805,6.029,-0.02,-0.039,-0.028,102.0,101.0,100.0,13.3,1505.2,329.7,-0.8,1.9,2470.958,13.29,0.043,207.1
2022-10-26T02:34:03,42.805,6.029,-0.033,-0.02,-0.037,102.0,101.0,101.0,13.4,1505.2,334.3,-0.8,1.8,2470.946,13.29,0.038,238.8
2022-10-26T02:37:03,42.805,6.029,-0.048,-0.001,-0.005,102.0,102.0,100.0,13.4,1505.2,332.2,-0.8,1.8,2471.013,13.29,0.048,268.8
2022-10-26T02:40:03,42.805,6.029,-0.013,-0.029,-0.022,101.0,101.0,101.0,13.3,1505.2,320.8,-0.8,1.8,2470.986,13.29,0.031,204.1
2022-10-26T02:43:03,42.805,6.029,-0.031,-0.028,-0.044,102.0,101.0,101.0,13.4,1505.2,328.1,-0.8,1.8,2470.962,13.29,0.041,227.9
2022-10-26T02:46:03,42.805,6.029,-0.024,-0.052,-0.021,102.0,101.0,100.0,13.4,1505.2,321.5,-0.8,1.8,2470.977,13.29,0.057,204.8
2022-10-26T02:49:03,42.805,6.029,-0.027,-0.007,-0.004,102.0,102.0,100.0,13.4,1505.2,332.2,-0.7,1.8,2470.972,13.29,0.027,255.5
2022-10-26T02:52:03,42.805,6.029,-0.01,-0.043,-0.021,102.0,102.0,100.0,13.4,1505.2,320.4,-0.8,1.8,2470.981,13.29,0.044,193.1
2022-10-26T02:55:03,42.805,6.029,-0.04,-0.044,-0.026,102.0,101.0,101.0,13.3,1505.2,318.0,-0.8,1.9,2470.992,13.29,0.059,222.3
2022-10-26T02:58:03,42.805,6.029,-0.009,-0.047,-0.031,103.0,101.0,100.0,13.4,1505.2,323.2,-0.8,1.9,2470.989,13.29,0.047,190.8
2022-10-26T03:04:03,42.805,6.029,-0.013,-0.039,-0.02,101.0,101.0,101.0,13.3,1505.2,325.9,-0.7,1.8,2471.035,13.28,0.041,198.4
2022-10-26T03:07:03,42.805,6.029,-0.012,-0.031,-0.03,101.0,102.0,100.0,13.4,1505.2,326.3,-0.8,1.8,2471.021,13.28,0.033,201.2
2022-10-26T03:10:03,42.805,6.029,-0.028,-0.054,-0.037,102.0,103.0,100.0,13.4,1505.2,327.9,-0.7,1.8,2471.046,13.28,0.06,207.4
2022-10-26T03:13:03,42.805,6.029,-0.042,-0.029,-0.055,102.0,101.0,101.0,13.4,1505.2,321.7,-0.7,1.8,2470.99,13.28,0.051,235.4
2022-10-26T03:16:03,42.805,6.029,-0.02,-0.045,-0.051,103.0,103.0,99.0,13.4,1505.2,330.0,-0.7,1.9,2470.979,13.28,0.049,204.0
2022-10-26T03:19:03,42.805,6.029,-0.028,-0.037,-0.005,102.0,101.0,100.0,13.4,1505.2,328.7,-0.8,1.8,2471.051,13.28,0.046,217.1
2022-10-26T03:22:03,42.805,6.029,-0.023,-0.025,0.008,102.0,101.0,100.0,13.4,1505.2,326.9,-0.7,1.8,2470.991,13.28,0.033,222.6
2022-10-26T03:25:03,42.805,6.029,-0.011,-0.028,0.017,101.0,101.0,100.0,13.4,1505.2,319.2,-0.7,1.8,2471.024,13.29,0.03,201.4
2022-10-26T03:28:03,42.805,6.029,-0.011,-0.037,-0.045,102.0,101.0,101.0,13.4,1505.2,331.0,-0.7,1.8,2471.024,13.29,0.038,196.6
2022-10-26T03:31:03,42.805,6.029,-0.034,-0.044,-0.032,102.0,102.0,101.0,13.4,1505.2,329.2,-0.8,1.8,2471.044,13.29,0.055,217.7
2022-10-26T03:34:03,42.805,6.029,-0.013,-0.044,-0.006,101.0,101.0,101.0,13.4,1505.2,334.6,-0.8,1.8,2471.022,13.29,0.045,196.5
2022-10-26T03:37:03,42.805,6.029,-0.008,-0.035,-0.014,101.0,101.0,100.0,13.4,1505.2,322.1,-0.8,1.8,2471.027,13.29,0.035,192.9
2022-10-26T03:40:03,42.805,6.029,-0.036,-0.061,-0.063,102.0,102.0,100.0,13.4,1505.2,330.1,-0.7,1.8,2471.013,13.29,0.07,210.6
2022-10-26T03:43:03,42.805,6.029,-0.028,-0.025,-0.011,102.0,101.0,101.0,13.4,1505.2,325.3,-0.8,1.8,2471.013,13.29,0.037,228.2
2022-10-26T03:46:03,42.805,6.029,-0.024,-0.039,-0.009,102.0,101.0,100.0,13.3,1505.2,320.7,-0.8,1.8,2471.037,13.29,0.045,211.6
2022-10-26T03:49:03,42.805,6.029,-0.01,-0.037,-0.013,102.0,102.0,101.0,13.4,1505.2,327.9,-0.8,1.8,2471.04,13.29,0.038,195.1
2022-10-26T03:52:03,42.805,6.029,-0.01,-0.04,-0.031,102.0,102.0,101.0,13.4,1505.2,333.1,-0.8,1.8,2471.022,13.29,0.041,194.0
2022-10-26T03:55:03,42.805,6.029,-0.008,-0.033,-0.007,102.0,101.0,100.0,13.3,1505.2,318.7,-0.8,1.8,2471.05,13.29,0.033,193.6
2022-10-26T03:58:03,42.805,6.029,-0.001,-0.063,-0.038,101.0,102.0,100.0,13.3,1505.2,327.0,-0.8,1.8,2471.046,13.28,0.063,180.9
2022-10-26T04:04:03,42.805,6.029,-0.033,-0.05,-0.032,103.0,101.0,101.0,13.4,1505.2,327.9,-0.7,1.8,2471.098,13.28,0.059,213.4
2022-10-26T04:07:03,42.805,6.029,-0.024,-0.054,-0.046,102.0,101.0,100.0,13.3,1505.2,320.9,-0.7,1.8,2471.096,13.28,0.059,204.0
2022-10-26T04:10:03,42.805,6.029,-0.06,-0.037,-0.042,102.0,102.0,101.0,13.4,1505.2,334.4,-0.8,1.8,2471.048,13.28,0.07,238.3
2022-10-26T04:13:03,42.805,6.029,-0.038,-0.05,-0.006,102.0,102.0,100.0,13.3,1505.2,322.7,-0.8,1.8,2471.051,13.28,0.062,217.2
2022-10-26T04:16:03,42.805,6.029,-0.009,-0.061,0.01,102.0,102.0,101.0,13.4,1505.2,326.8,-0.8,1.8,2471.067,13.28,0.061,188.4
2022-10-26T04:19:03,42.805,6.029,-0.008,-0.043,-0.029,104.0,101.0,101.0,13.4,1505.2,322.3,-0.7,1.8,2471.057,13.28,0.043,190.5
2022-10-26T04:22:03,42.805,6.029,-0.005,-0.07,-0.066,102.0,101.0,100.0,13.3,1505.2,327.6,-0.7,1.8,2471.068,13.28,0.07,184.1
2022-10-26T04:25:03,42.805,6.029,-0.037,-0.052,-0.029,102.0,102.0,101.0,13.4,1505.2,323.1,-0.8,1.8,2471.08,13.28,0.063,215.4
2022-10-26T04:28:03,42.805,6.029,-0.017,-0.048,-0.033,102.0,101.0,101.0,13.3,1505.2,322.3,-0.7,1.8,2471.092,13.28,0.05,199.5
2022-10-26T04:31:03,42.805,6.029,0.0,-0.054,-0.029,102.0,101.0,101.0,13.3,1505.2,318.7,-0.8,1.8,2471.067,13.28,0.053,180.0
2022-10-26T04:34:03,42.805,6.029,0.009,-0.053,-0.06,102.0,100.0,101.0,13.4,1505.2,324.9,-0.8,1.8,2471.097,13.28,0.053,170.4
2022-10-26T04:37:03,42.805,6.029,0.014,-0.047,-0.004,102.0,102.0,100.0,13.3,1505.2,323.7,-0.7,1.8,2471.079,13.28,0.049,163.4
2022-10-26T04:40:03,42.805,6.029,-0.005,-0.044,-0.051,101.0,102.0,101.0,13.4,1505.2,324.1,-0.7,1.8,2471.105,13.28,0.044,186.5
2022-10-26T04:43:03,42.805,6.029,-0.008,-0.04,-0.01,102.0,101.0,100.0,13.4,1505.2,324.5,-0.8,1.8,2471.091,13.28,0.04,191.3
2022-10-26T04:46:03,42.805,6.029,0.02,-0.049,-0.043,102.0,102.0,101.0,13.4,1505.2,322.8,-0.8,1.8,2471.105,13.28,0.052,157.8
2022-10-26T04:49:03,42.805,6.029,-0.007,-0.033,-0.038,102.0,102.0,101.0,13.4,1505.2,323.6,-0.8,1.8,2471.098,13.28,0.033,192.0
2022-10-26T04:52:03,42.805,6.029,-0.021,-0.046,-0.011,102.0,101.0,101.0,13.4,1505.2,321.4,-0.7,1.8,2471.091,13.28,0.05,204.5
2022-10-26T04:55:03,42.805,6.029,0.005,-0.03,-0.031,102.0,101.0,101.0,13.4,1505.2,317.5,-0.7,1.8,2471.113,13.28,0.03,170.5
2022-10-26T04:58:03,42.805,6.029,-0.01,-0.037,-0.025,102.0,101.0,101.0,13.4,1505.2,333.7,-0.8,1.8,2471.121,13.28,0.038,195.1
2022-10-26T05:04:03,42.805,6.029,0.005,-0.029,-0.065,102.0,101.0,101.0,13.4,1505.2,317.1,-0.8,1.8,2471.155,13.28,0.029,170.2
2022-10-26T05:07:03,42.805,6.029,-0.001,-0.028,-0.021,101.0,101.0,101.0,13.4,1505.2,320.7,-0.8,1.8,2471.182,13.28,0.028,182.0
2022-10-26T05:10:03,42.805,6.029,0.007,-0.028,-0.021,102.0,102.0,100.0,13.4,1505.2,324.3,-0.8,1.8,2471.151,13.28,0.028,166.0
2022-10-26T05:13:03,42.805,6.029,-0.034,-0.03,-0.076,103.0,102.0,100.0,13.4,1505.2,325.1,-0.8,1.8,2471.163,13.28,0.045,228.6
2022-10-26T05:16:03,42.805,6.029,-0.029,-0.052,-0.054,102.0,102.0,101.0,13.4,1505.2,329.2,-0.8,1.8,2471.156,13.28,0.059,209.1
2022-10-26T05:19:03,42.805,6.029,-0.014,-0.06,-0.053,101.0,102.0,101.0,13.4,1505.2,318.9,-0.7,1.8,2471.132,13.28,0.061,193.1
2022-10-26T05:22:03,42.805,6.029,-0.026,-0.037,-0.025,102.0,101.0,101.0,13.4,1505.2,321.9,-0.8,1.8,2471.139,13.28,0.045,215.1
2022-10-26T05:25:03,42.805,6.029,-0.015,-0.051,-0.061,102.0,101.0,101.0,13.4,1505.2,317.6,-0.7,1.8,2471.105,13.28,0.053,196.4
2022-10-26T05:28:03,42.805,6.029,-0.014,-0.047,-0.011,102.0,101.0,100.0,13.4,1505.2,327.9,-0.7,1.8,2471.095,13.28,0.049,196.6
2022-10-26T05:31:03,42.805,6.029,-0.026,-0.041,-0.012,101.0,100.0,102.0,13.4,1505.2,324.3,-0.8,1.8,2471.138,13.28,0.048,212.4
2022-10-26T05:34:03,42.805,6.029,-0.007,-0.036,-0.039,102.0,100.0,100.0,13.3,1505.2,323.1,-0.7,1.8,2471.154,13.28,0.036,191.0
2022-10-26T05:37:03,42.805,6.029,-0.008,-0.055,-0.037,102.0,101.0,101.0,13.4,1505.2,321.8,-0.8,1.8,2471.144,13.28,0.055,188.3
2022-10-26T05:40:03,42.805,6.029,-0.024,-0.037,-0.03,101.0,101.0,101.0,13.4,1505.2,328.3,-0.8,1.8,2471.115,13.28,0.044,213.0
2022-10-26T05:43:03,42.805,6.029,-0.016,-0.049,-0.049,101.0,101.0,101.0,13.3,1505.2,325.9,-0.8,1.8,2471.159,13.28,0.051,198.1
2022-10-26T05:46:03,42.805,6.029,-0.002,-0.035,-0.016,101.0,101.0,101.0,13.4,1505.2,324.9,-0.8,1.8,2471.154,13.28,0.035,183.3
2022-10-26T05:49:03,42.805,6.029,-0.015,-0.044,-0.017,101.0,101.0,101.0,13.4,1505.2,327.9,-0.8,1.8,2471.172,13.28,0.046,198.8
2022-10-26T05:52:03,42.805,6.029,-0.028,-0.048,-0.016,101.0,101.0,101.0,13.3,1505.2,316.7,-0.7,1.8,2471.169,13.28,0.055,210.3
2022-10-26T05:55:03,42.805,6.029,-0.014,-0.037,-0.028,102.0,102.0,100.0,13.4,1505.2,324.8,-0.7,1.8,2471.162,13.28,0.039,200.7
2022-10-26T05:58:03,42.805,6.029,-0.001,-0.051,-0.036,102.0,102.0,101.0,13.4,1505.2,316.2,-0.7,1.8,2471.171,13.28,0.051,181.1
2022-10-26T06:04:03,42.805,6.029,-0.034,-0.056,-0.059,101.0,103.0,101.0,13.4,1505.2,321.8,-0.7,1.9,2471.248,13.28,0.065,211.3
2022-10-26T06:07:03,42.805,6.029,-0.01,-0.045,-0.045,101.0,102.0,101.0,13.3,1505.2,332.1,-0.7,1.8,2471.252,13.28,0.046,192.5
2022-10-26T06:10:03,42.805,6.029,-0.013,-0.057,-0.047,100.0,102.0,102.0,13.4,1505.2,335.4,-0.7,1.8,2471.224,13.28,0.058,192.8
2022-10-26T06:13:03,42.805,6.029,-0.035,-0.035,-0.031,102.0,100.0,102.0,13.4,1505.2,327.2,-0.8,1.8,2471.187,13.28,0.049,225.0
2022-10-26T06:16:03,42.805,6.029,-0.016,-0.039,-0.036,102.0,101.0,102.0,13.4,1505.2,320.5,-0.8,1.8,2471.192,13.28,0.042,202.3
2022-10-26T06:19:03,42.805,6.029,-0.007,-0.04,-0.018,102.0,102.0,100.0,13.4,1505.2,322.2,-0.7,1.8,2471.229,13.29,0.04,189.9
2022-10-26T06:22:03,42.805,6.029,-0.022,-0.047,-0.022,102.0,101.0,100.0,13.3,1505.2,329.0,-0.8,1.8,2471.185,13.29,0.051,205.1
2022-10-26T06:25:03,42.805,6.029,-0.042,-0.033,-0.011,101.0,101.0,101.0,13.4,1505.2,320.9,-0.8,1.8,2471.2,13.29,0.053,231.8
2022-10-26T06:28:03,42.805,6.029,-0.038,-0.03,-0.051,102.0,102.0,100.0,13.4,1505.2,325.5,-0.8,1.8,2471.222,13.29,0.048,231.7
2022-10-26T06:31:03,42.805,6.029,-0.032,-0.037,-0.05,101.0,102.0,100.0,13.4,1505.2,328.1,-0.8,1.8,2471.208,13.29,0.048,220.9
2022-10-26T06:34:03,42.805,6.029,-0.032,-0.05,-0.019,102.0,102.0,101.0,13.4,1505.2,318.3,-0.7,1.8,2471.219,13.29,0.059,212.6
2022-10-26T06:37:03,42.805,6.029,-0.041,-0.035,-0.047,102.0,101.0,100.0,13.3,1505.2,320.4,-0.8,1.8,2471.165,13.29,0.053,229.5
2022-10-26T06:40:03,42.805,6.029,-0.005,-0.031,-0.025,101.0,101.0,101.0,13.4,1505.2,318.5,-0.8,1.8,2471.193,13.29,0.031,189.2
2022-10-26T06:43:03,42.805,6.029,-0.027,-0.037,-0.017,102.0,101.0,100.0,13.4,1505.2,326.3,-0.8,1.8,2471.226,13.29,0.045,216.1
2022-10-26T06:46:03,42.805,6.029,0.0,-0.016,-0.02,101.0,102.0,101.0,13.4,1505.2,317.1,-0.8,1.8,2471.194,13.29,0.016,180.0
2022-10-26T06:49:03,42.805,6.029,-0.016,-0.03,-0.047,102.0,102.0,100.0,13.4,1505.2,325.7,-0.8,1.8,2471.262,13.29,0.034,208.1
2022-10-26T06:52:03,42.805,6.029,-0.038,-0.057,-0.063,102.0,102.0,101.0,13.4,1505.2,329.8,-0.7,1.8,2471.221,13.29,0.068,213.7
2022-10-26T06:55:03,42.805,6.029,-0.011,-0.049,-0.049,102.0,100.0,101.0,13.4,1505.2,323.9,-0.8,1.8,2471.219,13.29,0.05,192.7
2022-10-26T06:58:03,42.805,6.029,-0.022,-0.024,-0.019,101.0,101.0,101.0,13.4,1505.2,320.1,-0.8,1.8,2471.218,13.29,0.032,222.5
2022-10-26T07:04:03,42.805,6.029,-0.037,-0.007,-0.028,102.0,101.0,100.0,13.4,1505.2,324.7,-0.8,1.8,2471.295,13.28,0.037,259.3
2022-10-26T07:07:03,42.805,6.029,-0.038,-0.027,-0.017,101.0,101.0,101.0,13.4,1505.2,323.6,-0.7,1.9,2471.233,13.28,0.046,234.6
2022-10-26T07:10:03,42.805,6.029,-0.012,-0.06,-0.026,102.0,99.0,101.0,13.4,1505.2,322.8,-0.8,1.8,2471.225,13.28,0.061,191.3
2022-10-26T07:13:03,42.805,6.029,-0.031,-0.033,-0.055,102.0,101.0,100.0,13.4,1505.2,322.2,-0.8,1.8,2471.244,13.28,0.045,223.2
2022-10-26T07:16:03,42.805,6.029,-0.031,-0.026,-0.043,101.0,102.0,100.0,13.4,1505.2,319.0,-0.7,1.8,2471.265,13.29,0.04,230.0
2022-10-26T07:19:03,42.805,6.029,-0.023,-0.045,-0.065,101.0,101.0,101.0,13.4,1505.2,317.2,-0.8,1.8,2471.265,13.29,0.05,207.1
2022-10-26T07:22:03,42.805,6.029,-0.038,-0.041,-0.021,102.0,101.0,101.0,13.3,1505.2,327.3,-0.8,1.8,2471.261,13.29,0.055,222.8
2022-10-26T07:25:03,42.805,6.029,-0.014,-0.038,-0.024,103.0,101.0,101.0,13.3,1505.2,331.4,-0.8,1.8,2471.219,13.29,0.04,200.2
2022-10-26T07:28:03,42.805,6.029,-0.034,-0.024,-0.04,102.0,101.0,101.0,13.4,1505.2,327.6,-0.8,1.8,2471.255,13.29,0.041,234.8
2022-10-26T07:31:03,42.805,6.029,-0.017,-0.034,-0.014,102.0,101.0,100.0,13.4,1505.2,327.6,-0.7,1.8,2471.215,13.29,0.038,206.6
2022-10-26T07:34:03,42.805,6.029,-0.013,-0.016,-0.016,101.0,101.0,100.0,13.4,1505.2,332.2,-0.8,1.8,2471.243,13.29,0.02,219.1
2022-10-26T07:37:03,42.805,6.029,-0.048,-0.022,-0.04,102.0,101.0,100.0,13.4,1505.2,327.3,-0.7,1.8,2471.245,13.29,0.052,245.4
2022-10-26T07:40:03,42.805,6.029,-0.019,-0.031,-0.049,102.0,101.0,101.0,13.4,1505.2,326.3,-0.8,1.8,2471.246,13.29,0.036,211.5
2022-10-26T07:43:03,42.805,6.029,-0.011,-0.029,-0.023,102.0,101.0,101.0,13.3,1505.2,326.1,-0.8,1.8,2471.244,13.29,0.031,200.8
2022-10-26T07:46:03,42.805,6.029,-0.056,-0.022,-0.053,101.0,101.0,101.0,13.3,1505.2,325.9,-0.7,1.9,2471.191,13.29,0.06,248.6
2022-10-26T07:49:03,42.805,6.029,-0.026,-0.034,-0.046,102.0,101.0,101.0,13.3,1505.2,322.8,-0.7,1.8,2471.223,13.29,0.042,217.4
2022-10-26T07:52:03,42.805,6.029,-0.023,-0.037,-0.035,102.0,101.0,101.0,13.3,1505.2,319.1,-0.8,1.8,2471.21,13.29,0.043,211.9
2022-10-26T07:55:03,42.805,6.029,-0.032,-0.021,-0.046,101.0,101.0,100.0,13.4,1505.2,328.7,-0.8,1.8,2471.217,13.29,0.038,236.7
2022-10-26T07:58:03,42.805,6.029,-0.031,-0.01,-0.003,102.0,102.0,102.0,13.4,1505.2,324.7,-0.8,1.8,2471.197,13.29,0.032,252.1
2022-10-26T08:04:03,42.805,6.029,-0.01,-0.032,-0.043,102.0,101.0,101.0,13.4,1505.2,320.4,-0.8,1.8,2471.277,13.28,0.033,197.4
2022-10-26T08:07:03,42.805,6.029,-0.024,-0.016,-0.026,102.0,101.0,102.0,13.4,1505.2,333.4,-0.7,1.8,2471.235,13.28,0.028,236.3
2022-10-26T08:10:03,42.805,6.029,-0.02,-0.044,-0.05,102.0,101.0,100.0,13.3,1505.2,321.8,-0.7,1.8,2471.251,13.28,0.048,204.4
2022-10-26T08:13:03,42.805,6.029,-0.006,-0.038,-0.048,102.0,101.0,100.0,13.4,1505.2,324.3,-0.8,1.8,2471.233,13.28,0.038,189.0
2022-10-26T08:16:03,42.805,6.029,-0.011,-0.056,-0.062,102.0,101.0,101.0,13.4,1505.2,317.7,-0.8,1.8,2471.244,13.28,0.057,191.1
2022-10-26T08:19:03,42.805,6.029,-0.031,-0.042,-0.051,102.0,103.0,100.0,13.4,1505.2,332.8,-0.7,1.8,2471.259,13.29,0.052,216.4
2022-10-26T08:22:03,42.805,6.029,-0.031,-0.034,-0.033,101.0,102.0,101.0,13.4,1505.2,327.0,-0.7,1.8,2471.224,13.29,0.046,222.4
2022-10-26T08:25:03,42.805,6.029,-0.03,-0.019,0.005,103.0,101.0,101.0,13.4,1505.2,329.0,-0.8,1.8,2471.239,13.29,0.035,237.7
2022-10-26T08:28:03,42.805,6.029,-0.03,-0.024,-0.017,102.0,102.0,100.0,13.3,1505.2,330.7,-0.8,1.8,2471.216,13.29,0.038,231.3
2022-10-26T08:31:03,42.805,6.029,-0.001,-0.046,-0.044,101.0,101.0,100.0,13.3,1505.2,329.4,-0.8,1.8,2471.229,13.29,0.046,181.2
2022-10-26T08:34:03,42.805,6.029,-0.011,-0.027,-0.028,103.0,100.0,101.0,13.4,1505.2,321.6,-0.8,1.8,2471.204,13.29,0.029,202.2
2022-10-26T08:37:03,42.805,6.029,-0.017,-0.041,-0.039,101.0,102.0,100.0,13.3,1505.2,319.9,-0.8,1.8,2471.249,13.29,0.044,202.5
2022-10-26T08:40:03,42.805,6.029,-0.023,-0.047,-0.071,102.0,102.0,100.0,13.4,1505.2,332.1,-0.7,1.8,2471.248,13.29,0.052,206.1
2022-10-26T08:43:03,42.805,6.029,-0.033,-0.035,-0.045,101.0,101.0,101.0,13.4,1505.2,329.4,-0.7,1.8,2471.232,13.29,0.048,223.3
2022-10-26T08:46:03,42.805,6.029,-0.038,-0.035,-0.029,101.0,101.0,101.0,13.4,1505.2,325.1,-0.8,1.8,2471.21,13.29,0.051,227.4
2022-10-26T08:49:03,42.805,6.029,-0.02,-0.024,-0.032,102.0,101.0,101.0,13.4,1505.2,327.4,-0.8,1.8,2471.214,13.29,0.031,219.8
2022-10-26T08:52:03,42.805,6.029,0.001,-0.047,-0.045,102.0,101.0,101.0,13.3,1505.2,323.2,-0.8,1.8,2471.16,13.29,0.047,178.8
2022-10-26T08:55:03,42.805,6.029,-0.007,-0.035,-0.048,102.0,102.0,101.0,13.4,1505.2,325.7,-0.8,1.8,2471.214,13.29,0.035,191.3
2022-10-26T08:58:03,42.805,6.029,-0.038,-0.035,-0.055,100.0,101.0,101.0,13.3,1505.2,328.8,-0.8,1.8,2471.208,13.29,0.051,227.4
2022-10-26T09:04:03,42.805,6.029,-0.032,-0.029,-0.02,102.0,100.0,102.0,13.4,1505.2,324.1,-0.8,1.8,2471.233,13.28,0.043,227.8
2022-10-26T09:07:03,42.805,6.029,-0.021,-0.048,-0.062,102.0,102.0,101.0,13.4,1505.2,327.0,-0.7,1.8,2471.3,13.28,0.052,203.6
2022-10-26T09:10:03,42.805,6.029,-0.013,-0.026,-0.026,103.0,101.0,101.0,13.3,1505.2,321.6,-0.8,1.8,2471.231,13.28,0.029,206.6
2022-10-26T09:13:03,42.805,6.029,-0.034,-0.044,-0.018,102.0,101.0,101.0,13.4,1505.2,326.1,-0.7,1.8,2471.243,13.28,0.055,217.7
2022-10-26T09:16:03,42.805,6.029,-0.015,-0.035,-0.013,103.0,101.0,101.0,13.4,1505.2,325.5,-0.7,1.8,2471.197,13.28,0.038,203.2
2022-10-26T09:19:03,42.805,6.029,-0.015,-0.056,-0.038,101.0,102.0,101.0,13.4,1505.2,323.2,-0.8,1.8,2471.231,13.29,0.057,195.0
2022-10-26T09:22:03,42.805,6.029,-0.028,-0.04,-0.053,102.0,102.0,100.0,13.4,1505.2,322.5,-0.8,1.8,2471.2,13.29,0.048,215.0
2022-10-26T09:25:03,42.805,6.029,-0.02,-0.042,-0.043,102.0,102.0,101.0,13.3,1505.2,324.3,-0.7,1.8,2471.178,13.29,0.046,205.5
2022-10-26T09:28:03,42.805,6.029,-0.026,-0.017,-0.031,102.0,102.0,101.0,13.4,1505.2,321.7,-0.8,1.8,2471.186,13.29,0.031,236.8
2022-10-26T09:31:03,42.805,6.029,-0.055,0.0,-0.005,101.0,102.0,101.0,13.4,1505.2,333.7,-0.7,1.8,2471.184,13.29,0.055,270.0
2022-10-26T09:34:03,42.805,6.029,-0.047,-0.036,-0.028,102.0,102.0,101.0,13.4,1505.2,327.9,-0.7,1.8,2471.214,13.29,0.059,232.5
2022-10-26T09:37:03,42.805,6.029,-0.018,-0.012,0.007,102.0,102.0,101.0,13.4,1505.2,323.1,-0.7,1.8,2471.164,13.29,0.021,236.3
2022-10-26T09:40:03,42.805,6.029,-0.02,-0.021,-0.04,102.0,101.0,101.0,13.4,1505.2,324.1,-0.8,1.8,2471.17,13.29,0.028,223.6
2022-10-26T09:43:03,42.805,6.029,-0.018,-0.038,-0.034,102.0,103.0,101.0,13.4,1505.2,318.2,-0.8,1.8,2471.173,13.29,0.042,205.3
2022-10-26T09:46:03,42.805,6.029,-0.034,-0.01,-0.046,103.0,102.0,101.0,13.4,1505.2,322.9,-0.8,1.8,2471.168,13.29,0.035,253.6
2022-10-26T09:49:03,42.805,6.029,-0.013,-0.034,-0.053,101.0,102.0,102.0,13.4,1505.2,317.5,-0.7,1.8,2471.194,13.29,0.036,200.9